Time,TemperatureF,DewpointF,PressureIn,WindDirection,WindDirectionDegrees,WindSpeedMPH,WindSpeedGustMPH,Humidity,HourlyPrecipIn,Conditions,Clouds,dailyrainin,SoftwareType,DateUTC
2013-01-20 00:04:00,38.9,31.5,30.14,North,350,0.0,-999.0,63,0.00,,,0.00,Custom/Perl,2013-01-20 06:04:00,
2013-01-20 00:09:00,38.7,31.3,30.15,NNW,330,0.0,-999.0,63,0.00,,,0.00,Custom/Perl,2013-01-20 06:09:00,
2013-01-20 00:14:00,38.6,31.2,30.15,NNW,342,1.0,-999.0,63,0.00,,,0.00,Custom/Perl,2013-01-20 06:14:00,
2013-01-20 00:19:00,38.3,31.1,30.15,NW,315,2.0,-999.0,64,0.00,,,0.00,Custom/Perl,2013-01-20 06:19:00,
2013-01-20 00:25:00,38.2,31.0,30.15,NW,319,2.0,-999.0,64,0.00,,,0.00,Custom/Perl,2013-01-20 06:25:00,
2013-01-20 00:30:00,38.2,31.0,30.15,North,352,4.0,-999.0,64,0.00,,,0.00,Custom/Perl,2013-01-20 06:30:00,
2013-01-20 00:35:00,38.1,31.1,30.15,NNE,18,4.0,-999.0,65,0.00,,,0.00,Custom/Perl,2013-01-20 06:35:00,
2013-01-20 00:40:00,37.9,31.1,30.15,ENE,70,2.0,-999.0,66,0.00,,,0.00,Custom/Perl,2013-01-20 06:40:00,
2013-01-20 00:45:00,37.8,31.2,30.16,ENE,76,6.0,-999.0,67,0.00,,,0.00,Custom/Perl,2013-01-20 06:45:00,
2013-01-20 00:50:00,37.6,31.2,30.16,ESE,116,10.0,-999.0,68,0.00,,,0.00,Custom/Perl,2013-01-20 06:50:00,
2013-01-20 00:56:00,37.3,31.1,30.16,NNW,333,2.0,-999.0,69,0.00,,,0.00,Custom/Perl,2013-01-20 06:56:00,
2013-01-20 01:01:00,36.9,30.7,30.16,NW,319,2.0,-999.0,69,0.00,,,0.00,Custom/Perl,2013-01-20 07:01:00,
2013-01-20 01:06:00,36.7,30.7,30.16,SW,232,4.0,-999.0,70,0.00,,,0.00,Custom/Perl,2013-01-20 07:06:00,
2013-01-20 01:12:00,36.3,30.3,30.16,North,1,2.0,-999.0,70,0.00,,,0.00,Custom/Perl,2013-01-20 07:12:00,
2013-01-20 01:17:00,36.1,29.9,30.17,West,266,1.0,-999.0,69,0.00,,,0.00,Custom/Perl,2013-01-20 07:17:00,
2013-01-20 01:22:00,35.8,29.2,30.17,ENE,66,8.0,-999.0,67,0.00,,,0.00,Custom/Perl,2013-01-20 07:22:00,
2013-01-20 01:27:00,35.6,29.0,30.16,North,359,5.0,-999.0,67,0.00,,,0.00,Custom/Perl,2013-01-20 07:27:00,
2013-01-20 01:33:00,35.4,28.6,30.17,North,6,6.0,-999.0,66,0.00,,,0.00,Custom/Perl,2013-01-20 07:33:00,
2013-01-20 01:38:00,35.2,28.4,30.17,ENE,73,4.0,-999.0,66,0.00,,,0.00,Custom/Perl,2013-01-20 07:38:00,
2013-01-20 01:43:00,34.9,28.1,30.17,NW,313,2.0,-999.0,66,0.00,,,0.00,Custom/Perl,2013-01-20 07:43:00,
2013-01-20 01:48:00,34.7,27.9,30.18,NNE,25,3.0,-999.0,66,0.00,,,0.00,Custom/Perl,2013-01-20 07:48:00,
2013-01-20 01:53:00,34.5,27.3,30.18,NW,309,5.0,-999.0,64,0.00,,,0.00,Custom/Perl,2013-01-20 07:53:00,
2013-01-20 01:59:00,34.3,26.3,30.18,NNE,16,3.0,-999.0,60,0.00,,,0.00,Custom/Perl,2013-01-20 07:59:00,
2013-01-20 02:04:00,34.0,25.6,30.18,NNE,21,3.0,-999.0,58,0.00,,,0.00,Custom/Perl,2013-01-20 08:04:00,
2013-01-20 02:09:00,33.6,25.2,30.18,NE,41,7.0,-999.0,58,0.00,,,0.00,Custom/Perl,2013-01-20 08:09:00,
2013-01-20 02:14:00,33.3,24.7,30.18,NNE,15,6.0,-999.0,57,0.00,,,0.00,Custom/Perl,2013-01-20 08:14:00,
2013-01-20 02:20:00,33.1,24.5,30.18,North,349,3.0,-999.0,57,0.00,,,0.00,Custom/Perl,2013-01-20 08:20:00,
2013-01-20 02:25:00,32.8,24.0,30.19,NNE,25,3.0,-999.0,56,0.00,,,0.00,Custom/Perl,2013-01-20 08:25:00,
2013-01-20 02:30:00,32.5,23.5,30.19,NNW,329,1.0,-999.0,55,0.00,,,0.00,Custom/Perl,2013-01-20 08:30:00,
2013-01-20 02:35:00,32.1,23.1,30.19,NNE,30,3.0,-999.0,55,0.00,,,0.00,Custom/Perl,2013-01-20 08:35:00,
2013-01-20 02:41:00,31.8,22.4,30.19,NW,309,2.0,-999.0,53,0.00,,,0.00,Custom/Perl,2013-01-20 08:41:00,
2013-01-20 02:46:00,31.6,22.2,30.18,WNW,283,1.0,-999.0,53,0.00,,,0.00,Custom/Perl,2013-01-20 08:46:00,
2013-01-20 02:51:00,31.3,21.9,30.18,NNE,22,0.0,-999.0,53,0.00,,,0.00,Custom/Perl,2013-01-20 08:51:00,
2013-01-20 02:56:00,30.9,21.5,30.19,NE,36,0.0,-999.0,53,0.00,,,0.00,Custom/Perl,2013-01-20 08:56:00,
2013-01-20 03:02:00,30.7,21.3,30.19,NE,44,4.0,-999.0,53,0.00,,,0.00,Custom/Perl,2013-01-20 09:02:00,
2013-01-20 03:07:00,30.5,21.1,30.18,NNE,22,0.0,-999.0,53,0.00,,,0.00,Custom/Perl,2013-01-20 09:07:00,
2013-01-20 03:12:00,30.1,20.9,30.18,WNW,288,0.0,-999.0,54,0.00,,,0.00,Custom/Perl,2013-01-20 09:12:00,
2013-01-20 03:17:00,29.8,20.6,30.18,ENE,60,2.0,-999.0,54,0.00,,,0.00,Custom/Perl,2013-01-20 09:17:00,
2013-01-20 03:23:00,29.6,20.4,30.18,NNW,342,0.0,-999.0,54,0.00,,,0.00,Custom/Perl,2013-01-20 09:23:00,
2013-01-20 03:28:00,29.4,20.4,30.19,North,1,0.0,-999.0,55,0.00,,,0.00,Custom/Perl,2013-01-20 09:28:00,
2013-01-20 03:33:00,29.2,20.2,30.19,NW,325,1.0,-999.0,55,0.00,,,0.00,Custom/Perl,2013-01-20 09:33:00,
2013-01-20 03:38:00,29.0,20.2,30.19,NW,305,2.0,-999.0,56,0.00,,,0.00,Custom/Perl,2013-01-20 09:38:00,
2013-01-20 03:44:00,29.0,20.2,30.19,North,359,1.0,-999.0,56,0.00,,,0.00,Custom/Perl,2013-01-20 09:44:00,
2013-01-20 03:49:00,28.7,19.9,30.19,North,10,1.0,-999.0,56,0.00,,,0.00,Custom/Perl,2013-01-20 09:49:00,
2013-01-20 03:54:00,28.5,19.9,30.19,NNW,341,0.0,-999.0,57,0.00,,,0.00,Custom/Perl,2013-01-20 09:54:00,
2013-01-20 03:59:00,28.3,19.7,30.19,NNE,12,0.0,-999.0,57,0.00,,,0.00,Custom/Perl,2013-01-20 09:59:00,
2013-01-20 04:05:00,28.1,19.5,30.19,North,354,0.0,-999.0,57,0.00,,,0.00,Custom/Perl,2013-01-20 10:05:00,
2013-01-20 04:10:00,27.8,19.4,30.19,NW,319,0.0,-999.0,58,0.00,,,0.00,Custom/Perl,2013-01-20 10:10:00,
2013-01-20 04:15:00,27.6,19.4,30.20,NNW,330,0.0,-999.0,59,0.00,,,0.00,Custom/Perl,2013-01-20 10:15:00,
2013-01-20 04:20:00,27.2,19.2,30.20,NW,316,0.0,-999.0,60,0.00,,,0.00,Custom/Perl,2013-01-20 10:20:00,
2013-01-20 04:26:00,27.0,19.0,30.19,NNW,342,0.0,-999.0,60,0.00,,,0.00,Custom/Perl,2013-01-20 10:26:00,
2013-01-20 04:31:00,26.9,19.1,30.19,North,11,0.0,-999.0,61,0.00,,,0.00,Custom/Perl,2013-01-20 10:31:00,
2013-01-20 04:36:00,26.8,19.0,30.19,North,6,0.0,-999.0,61,0.00,,,0.00,Custom/Perl,2013-01-20 10:36:00,
2013-01-20 04:41:00,26.6,19.0,30.19,NNW,338,0.0,-999.0,62,0.00,,,0.00,Custom/Perl,2013-01-20 10:41:00,
2013-01-20 04:47:00,26.5,18.9,30.19,North,1,0.0,-999.0,62,0.00,,,0.00,Custom/Perl,2013-01-20 10:47:00,
2013-01-20 04:52:00,26.3,18.9,30.19,North,2,0.0,-999.0,63,0.00,,,0.00,Custom/Perl,2013-01-20 10:52:00,
2013-01-20 04:57:00,26.1,18.7,30.20,North,359,0.0,-999.0,63,0.00,,,0.00,Custom/Perl,2013-01-20 10:57:00,
2013-01-20 05:02:00,26.0,18.6,30.20,North,359,0.0,-999.0,63,0.00,,,0.00,Custom/Perl,2013-01-20 11:02:00,
2013-01-20 05:07:00,25.6,18.4,30.20,North,359,0.0,-999.0,64,0.00,,,0.00,Custom/Perl,2013-01-20 11:07:00,
2013-01-20 05:13:00,25.1,18.1,30.19,North,359,0.0,-999.0,65,0.00,,,0.00,Custom/Perl,2013-01-20 11:13:00,
2013-01-20 05:18:00,25.1,18.3,30.19,NNE,27,0.0,-999.0,66,0.00,,,0.00,Custom/Perl,2013-01-20 11:18:00,
2013-01-20 05:23:00,25.1,18.3,30.18,NNE,32,0.0,-999.0,66,0.00,,,0.00,Custom/Perl,2013-01-20 11:23:00,
2013-01-20 05:28:00,25.2,18.4,30.18,NNE,27,0.0,-999.0,66,0.00,,,0.00,Custom/Perl,2013-01-20 11:28:00,
2013-01-20 05:34:00,25.2,18.4,30.18,NNE,31,1.0,-999.0,66,0.00,,,0.00,Custom/Perl,2013-01-20 11:34:00,
2013-01-20 05:39:00,25.3,18.3,30.18,North,4,1.0,-999.0,65,0.00,,,0.00,Custom/Perl,2013-01-20 11:39:00,
2013-01-20 05:44:00,25.3,18.3,30.18,NNE,29,1.0,-999.0,65,0.00,,,0.00,Custom/Perl,2013-01-20 11:44:00,
2013-01-20 05:49:00,25.2,18.2,30.18,North,5,2.0,-999.0,65,0.00,,,0.00,Custom/Perl,2013-01-20 11:49:00,
2013-01-20 05:55:00,25.1,18.1,30.18,NE,39,1.0,-999.0,65,0.00,,,0.00,Custom/Perl,2013-01-20 11:55:00,
2013-01-20 06:00:00,25.0,17.8,30.18,NNW,329,1.0,-999.0,64,0.00,,,0.00,Custom/Perl,2013-01-20 12:00:00,
2013-01-20 06:05:00,24.9,17.5,30.18,SE,138,0.0,-999.0,63,0.00,,,0.00,Custom/Perl,2013-01-20 12:05:00,
2013-01-20 06:11:00,24.8,17.4,30.18,East,89,1.0,-999.0,63,0.00,,,0.00,Custom/Perl,2013-01-20 12:11:00,
2013-01-20 06:16:00,24.6,17.2,30.17,NNE,27,2.0,-999.0,63,0.00,,,0.00,Custom/Perl,2013-01-20 12:16:00,
2013-01-20 06:21:00,24.3,16.9,30.18,WNW,303,1.0,-999.0,63,0.00,,,0.00,Custom/Perl,2013-01-20 12:21:00,
2013-01-20 06:27:00,24.2,16.8,30.18,NNE,13,1.0,-999.0,63,0.00,,,0.00,Custom/Perl,2013-01-20 12:27:00,
2013-01-20 06:32:00,23.9,16.5,30.18,NW,304,1.0,-999.0,63,0.00,,,0.00,Custom/Perl,2013-01-20 12:32:00,
2013-01-20 06:37:00,23.7,16.5,30.18,North,356,1.0,-999.0,64,0.00,,,0.00,Custom/Perl,2013-01-20 12:37:00,
2013-01-20 06:42:00,23.5,16.1,30.18,NNE,12,1.0,-999.0,63,0.00,,,0.00,Custom/Perl,2013-01-20 12:42:00,
2013-01-20 06:48:00,23.3,15.9,30.19,NNW,336,0.0,-999.0,63,0.00,,,0.00,Custom/Perl,2013-01-20 12:48:00,
2013-01-20 06:53:00,23.1,15.9,30.19,North,6,1.0,-999.0,64,0.00,,,0.00,Custom/Perl,2013-01-20 12:53:00,
2013-01-20 06:58:00,22.9,15.7,30.19,WNW,288,0.0,-999.0,64,0.00,,,0.00,Custom/Perl,2013-01-20 12:58:00,
2013-01-20 07:03:00,22.8,15.6,30.18,North,8,1.0,-999.0,64,0.00,,,0.00,Custom/Perl,2013-01-20 13:03:00,
2013-01-20 07:09:00,22.7,15.5,30.18,NW,315,0.0,-999.0,64,0.00,,,0.00,Custom/Perl,2013-01-20 13:09:00,
2013-01-20 07:14:00,22.6,15.4,30.18,North,10,0.0,-999.0,64,0.00,,,0.00,Custom/Perl,2013-01-20 13:14:00,
2013-01-20 07:19:00,22.4,15.2,30.18,NNE,23,0.0,-999.0,64,0.00,,,0.00,Custom/Perl,2013-01-20 13:19:00,
2013-01-20 07:25:00,22.3,15.1,30.18,South,187,0.0,-999.0,64,0.00,,,0.00,Custom/Perl,2013-01-20 13:25:00,
2013-01-20 07:30:00,22.3,14.9,30.18,NNE,30,1.0,-999.0,63,0.00,,,0.00,Custom/Perl,2013-01-20 13:30:00,
2013-01-20 07:35:00,22.3,14.7,30.18,NNW,333,1.0,-999.0,62,0.00,,,0.00,Custom/Perl,2013-01-20 13:35:00,
2013-01-20 07:40:00,22.4,14.8,30.18,SSE,162,0.0,-999.0,62,0.00,,,0.00,Custom/Perl,2013-01-20 13:40:00,
2013-01-20 07:46:00,22.3,14.7,30.18,NW,314,0.0,-999.0,62,0.00,,,0.00,Custom/Perl,2013-01-20 13:46:00,
2013-01-20 07:51:00,22.2,14.6,30.18,NE,34,0.0,-999.0,62,0.00,,,0.00,Custom/Perl,2013-01-20 13:51:00,
2013-01-20 07:56:00,22.1,14.7,30.18,NNE,26,0.0,-999.0,63,0.00,,,0.00,Custom/Perl,2013-01-20 13:56:00,
2013-01-20 08:02:00,22.1,14.7,30.17,NNE,19,0.0,-999.0,63,0.00,,,0.00,Custom/Perl,2013-01-20 14:02:00,
2013-01-20 08:07:00,22.0,14.4,30.18,SSW,210,0.0,-999.0,62,0.00,,,0.00,Custom/Perl,2013-01-20 14:07:00,
2013-01-20 08:12:00,22.2,14.2,30.17,WNW,285,0.0,-999.0,60,0.00,,,0.00,Custom/Perl,2013-01-20 14:12:00,
2013-01-20 08:17:00,22.4,14.0,30.18,West,264,0.0,-999.0,58,0.00,,,0.00,Custom/Perl,2013-01-20 14:17:00,
2013-01-20 08:22:00,22.5,13.9,30.18,SSW,205,1.0,-999.0,57,0.00,,,0.00,Custom/Perl,2013-01-20 14:22:00,
2013-01-20 08:28:00,22.7,13.9,30.18,SSW,205,0.0,-999.0,56,0.00,,,0.00,Custom/Perl,2013-01-20 14:28:00,
2013-01-20 08:33:00,22.8,13.8,30.18,NE,37,0.0,-999.0,55,0.00,,,0.00,Custom/Perl,2013-01-20 14:33:00,
2013-01-20 08:38:00,22.9,13.9,30.19,NNE,27,2.0,-999.0,55,0.00,,,0.00,Custom/Perl,2013-01-20 14:38:00,
2013-01-20 08:44:00,23.1,13.9,30.19,NNE,18,1.0,-999.0,54,0.00,,,0.00,Custom/Perl,2013-01-20 14:44:00,
2013-01-20 08:49:00,23.2,14.0,30.20,SW,236,0.0,-999.0,54,0.00,,,0.00,Custom/Perl,2013-01-20 14:49:00,
2013-01-20 08:54:00,23.4,14.4,30.20,West,266,0.0,-999.0,55,0.00,,,0.00,Custom/Perl,2013-01-20 14:54:00,
2013-01-20 08:59:00,23.6,14.4,30.20,West,260,1.0,-999.0,54,0.00,,,0.00,Custom/Perl,2013-01-20 14:59:00,
2013-01-20 09:05:00,23.7,14.5,30.20,NNE,25,0.0,-999.0,54,0.00,,,0.00,Custom/Perl,2013-01-20 15:05:00,
2013-01-20 09:10:00,23.9,14.7,30.21,North,349,1.0,-999.0,54,0.00,,,0.00,Custom/Perl,2013-01-20 15:10:00,
2013-01-20 09:15:00,24.2,15.0,30.21,SW,214,1.0,-999.0,54,0.00,,,0.00,Custom/Perl,2013-01-20 15:15:00,
2013-01-20 09:20:00,24.3,15.1,30.21,WNW,291,0.0,-999.0,54,0.00,,,0.00,Custom/Perl,2013-01-20 15:20:00,
2013-01-20 09:26:00,24.6,15.4,30.22,West,276,0.0,-999.0,54,0.00,,,0.00,Custom/Perl,2013-01-20 15:26:00,
2013-01-20 09:31:00,24.7,15.3,30.22,North,10,2.0,-999.0,53,0.00,,,0.00,Custom/Perl,2013-01-20 15:31:00,
2013-01-20 09:36:00,25.1,15.5,30.22,NE,51,1.0,-999.0,52,0.00,,,0.00,Custom/Perl,2013-01-20 15:36:00,
2013-01-20 09:41:00,25.4,16.0,30.22,SSE,155,1.0,-999.0,53,0.00,,,0.00,Custom/Perl,2013-01-20 15:41:00,
2013-01-20 09:47:00,25.8,16.2,30.22,WSW,248,0.0,-999.0,52,0.00,,,0.00,Custom/Perl,2013-01-20 15:47:00,
2013-01-20 09:52:00,26.0,16.4,30.22,NNE,23,2.0,-999.0,52,0.00,,,0.00,Custom/Perl,2013-01-20 15:52:00,
2013-01-20 09:57:00,26.0,16.2,30.22,NNE,20,1.0,-999.0,51,0.00,,,0.00,Custom/Perl,2013-01-20 15:57:00,
2013-01-20 10:02:00,26.2,16.4,30.21,NNE,15,3.0,-999.0,51,0.00,,,0.00,Custom/Perl,2013-01-20 16:02:00,
2013-01-20 10:07:00,26.4,16.6,30.22,North,4,1.0,-999.0,51,0.00,,,0.00,Custom/Perl,2013-01-20 16:07:00,
2013-01-20 10:13:00,26.7,16.7,30.22,NW,307,1.0,-999.0,50,0.00,,,0.00,Custom/Perl,2013-01-20 16:13:00,
2013-01-20 10:18:00,26.9,16.9,30.23,NNE,20,0.0,-999.0,50,0.00,,,0.00,Custom/Perl,2013-01-20 16:18:00,
2013-01-20 10:23:00,27.5,17.5,30.23,WSW,243,0.0,-999.0,50,0.00,,,0.00,Custom/Perl,2013-01-20 16:23:00,
2013-01-20 10:28:00,28.1,17.7,30.23,WSW,254,0.0,-999.0,48,0.00,,,0.00,Custom/Perl,2013-01-20 16:28:00,
2013-01-20 10:34:00,28.3,17.9,30.23,NNE,12,2.0,-999.0,48,0.00,,,0.00,Custom/Perl,2013-01-20 16:34:00,
2013-01-20 10:39:00,28.6,18.2,30.23,North,2,2.0,-999.0,48,0.00,,,0.00,Custom/Perl,2013-01-20 16:39:00,
2013-01-20 10:44:00,28.9,18.7,30.23,WNW,294,0.0,-999.0,49,0.00,,,0.00,Custom/Perl,2013-01-20 16:44:00,
2013-01-20 10:49:00,29.3,18.7,30.22,WSW,249,0.0,-999.0,47,0.00,,,0.00,Custom/Perl,2013-01-20 16:49:00,
2013-01-20 10:55:00,29.6,18.6,30.22,North,7,0.0,-999.0,45,0.00,,,0.00,Custom/Perl,2013-01-20 16:55:00,
2013-01-20 11:00:00,29.7,18.9,30.23,NW,304,1.0,-999.0,46,0.00,,,0.00,Custom/Perl,2013-01-20 17:00:00,
2013-01-20 11:05:00,30.1,19.1,30.22,NNE,25,1.0,-999.0,45,0.00,,,0.00,Custom/Perl,2013-01-20 17:05:00,
2013-01-20 11:10:00,30.5,19.3,30.23,NW,324,1.0,-999.0,44,0.00,,,0.00,Custom/Perl,2013-01-20 17:10:00,
2013-01-20 11:15:00,30.5,19.3,30.22,West,260,0.0,-999.0,44,0.00,,,0.00,Custom/Perl,2013-01-20 17:15:00,
2013-01-20 11:21:00,30.6,19.4,30.22,North,360,1.0,-999.0,44,0.00,,,0.00,Custom/Perl,2013-01-20 17:21:00,
2013-01-20 11:26:00,30.9,19.9,30.21,WSW,245,0.0,-999.0,45,0.00,,,0.00,Custom/Perl,2013-01-20 17:26:00,
2013-01-20 11:31:00,31.4,20.2,30.21,NNE,18,2.0,-999.0,44,0.00,,,0.00,Custom/Perl,2013-01-20 17:31:00,
2013-01-20 11:36:00,31.5,20.3,30.20,North,1,0.0,-999.0,44,0.00,,,0.00,Custom/Perl,2013-01-20 17:36:00,
2013-01-20 11:42:00,31.8,20.4,30.20,North,4,0.0,-999.0,43,0.00,,,0.00,Custom/Perl,2013-01-20 17:42:00,
2013-01-20 11:47:00,31.8,20.4,30.20,NE,55,0.0,-999.0,43,0.00,,,0.00,Custom/Perl,2013-01-20 17:47:00,
2013-01-20 11:52:00,32.1,20.7,30.20,East,79,2.0,-999.0,43,0.00,,,0.00,Custom/Perl,2013-01-20 17:52:00,
2013-01-20 11:57:00,32.4,20.8,30.20,NE,39,3.0,-999.0,42,0.00,,,0.00,Custom/Perl,2013-01-20 17:57:00,
2013-01-20 12:03:00,32.8,21.6,30.20,ENE,62,3.0,-999.0,44,0.00,,,0.00,Custom/Perl,2013-01-20 18:03:00,
2013-01-20 12:08:00,33.5,21.9,30.20,WSW,253,1.0,-999.0,42,0.00,,,0.00,Custom/Perl,2013-01-20 18:08:00,
2013-01-20 12:13:00,33.7,21.9,30.20,NNE,23,1.0,-999.0,41,0.00,,,0.00,Custom/Perl,2013-01-20 18:13:00,
2013-01-20 12:18:00,33.9,21.9,30.19,NW,316,1.0,-999.0,40,0.00,,,0.00,Custom/Perl,2013-01-20 18:18:00,
2013-01-20 12:23:00,34.5,22.7,30.19,NW,311,0.0,-999.0,41,0.00,,,0.00,Custom/Perl,2013-01-20 18:23:00,
2013-01-20 12:29:00,34.8,22.6,30.19,NE,34,2.0,-999.0,39,0.00,,,0.00,Custom/Perl,2013-01-20 18:29:00,
2013-01-20 12:34:00,34.9,22.7,30.18,WSW,255,0.0,-999.0,39,0.00,,,0.00,Custom/Perl,2013-01-20 18:34:00,
2013-01-20 12:39:00,35.3,22.9,30.18,NNE,23,1.0,-999.0,38,0.00,,,0.00,Custom/Perl,2013-01-20 18:39:00,
2013-01-20 12:45:00,35.1,22.5,30.18,North,349,2.0,-999.0,37,0.00,,,0.00,Custom/Perl,2013-01-20 18:45:00,
2013-01-20 12:50:00,35.3,22.9,30.18,NNW,347,1.0,-999.0,38,0.00,,,0.00,Custom/Perl,2013-01-20 18:50:00,
2013-01-20 12:55:00,35.3,22.9,30.18,NNW,347,1.0,-999.0,38,0.00,,,0.00,Custom/Perl,2013-01-20 18:55:00,
2013-01-20 13:00:00,35.7,23.3,30.18,NNW,330,0.0,-999.0,38,0.00,,,0.00,Custom/Perl,2013-01-20 19:00:00,
2013-01-20 13:05:00,35.7,23.3,30.17,NE,39,0.0,-999.0,38,0.00,,,0.00,Custom/Perl,2013-01-20 19:05:00,
2013-01-20 13:11:00,35.7,23.3,30.17,NNE,30,4.0,-999.0,38,0.00,,,0.00,Custom/Perl,2013-01-20 19:11:00,
2013-01-20 13:16:00,35.3,22.9,30.17,NW,311,2.0,-999.0,38,0.00,,,0.00,Custom/Perl,2013-01-20 19:16:00,
2013-01-20 13:21:00,34.7,22.3,30.18,NNE,14,2.0,-999.0,38,0.00,,,0.00,Custom/Perl,2013-01-20 19:21:00,
2013-01-20 13:26:00,34.2,21.8,30.18,WNW,294,2.0,-999.0,38,0.00,,,0.00,Custom/Perl,2013-01-20 19:26:00,
2013-01-20 13:32:00,34.2,21.6,30.18,NE,44,4.0,-999.0,37,0.00,,,0.00,Custom/Perl,2013-01-20 19:32:00,
2013-01-20 13:37:00,34.2,21.6,30.18,NW,326,1.0,-999.0,37,0.00,,,0.00,Custom/Perl,2013-01-20 19:37:00,
2013-01-20 13:42:00,34.2,21.6,30.18,North,11,5.0,-999.0,37,0.00,,,0.00,Custom/Perl,2013-01-20 19:42:00,
2013-01-20 13:47:00,34.2,21.6,30.18,NNE,29,4.0,-999.0,37,0.00,,,0.00,Custom/Perl,2013-01-20 19:47:00,
2013-01-20 13:53:00,34.0,21.6,30.18,North,353,1.0,-999.0,38,0.00,,,0.00,Custom/Perl,2013-01-20 19:53:00,
2013-01-20 13:58:00,33.9,21.5,30.18,NNW,327,2.0,-999.0,38,0.00,,,0.00,Custom/Perl,2013-01-20 19:58:00,
2013-01-20 14:03:00,33.7,21.5,30.18,North,355,5.0,-999.0,39,0.00,,,0.00,Custom/Perl,2013-01-20 20:03:00,
2013-01-20 14:08:00,33.7,21.3,30.19,NW,320,3.0,-999.0,38,0.00,,,0.00,Custom/Perl,2013-01-20 20:08:00,
2013-01-20 14:14:00,33.3,20.9,30.18,NNE,20,3.0,-999.0,38,0.00,,,0.00,Custom/Perl,2013-01-20 20:14:00,
2013-01-20 14:19:00,33.0,20.6,30.19,NW,307,2.0,-999.0,38,0.00,,,0.00,Custom/Perl,2013-01-20 20:19:00,
2013-01-20 14:24:00,32.8,20.4,30.19,WNW,302,2.0,-999.0,38,0.00,,,0.00,Custom/Perl,2013-01-20 20:24:00,
2013-01-20 14:29:00,32.7,20.3,30.19,North,355,1.0,-999.0,38,0.00,,,0.00,Custom/Perl,2013-01-20 20:29:00,
2013-01-20 14:35:00,32.5,20.1,30.18,NW,324,3.0,-999.0,38,0.00,,,0.00,Custom/Perl,2013-01-20 20:35:00,
2013-01-20 14:40:00,32.4,20.2,30.18,NW,309,1.0,-999.0,39,0.00,,,0.00,Custom/Perl,2013-01-20 20:40:00,
2013-01-20 14:45:00,32.4,20.2,30.19,North,355,1.0,-999.0,39,0.00,,,0.00,Custom/Perl,2013-01-20 20:45:00,
2013-01-20 14:50:00,32.3,20.1,30.19,NNE,20,3.0,-999.0,39,0.00,,,0.00,Custom/Perl,2013-01-20 20:50:00,
2013-01-20 14:56:00,32.2,20.0,30.19,WNW,297,1.0,-999.0,39,0.00,,,0.00,Custom/Perl,2013-01-20 20:56:00,
2013-01-20 15:01:00,32.3,20.1,30.19,North,10,3.0,-999.0,39,0.00,,,0.00,Custom/Perl,2013-01-20 21:01:00,
2013-01-20 15:06:00,32.1,19.7,30.19,NE,53,1.0,-999.0,38,0.00,,,0.00,Custom/Perl,2013-01-20 21:06:00,
2013-01-20 15:12:00,32.1,19.9,30.19,NNW,331,1.0,-999.0,39,0.00,,,0.00,Custom/Perl,2013-01-20 21:12:00,
2013-01-20 15:17:00,32.1,19.9,30.19,North,359,3.0,-999.0,39,0.00,,,0.00,Custom/Perl,2013-01-20 21:17:00,
2013-01-20 15:23:00,32.0,19.8,30.20,NW,314,3.0,-999.0,39,0.00,,,0.00,Custom/Perl,2013-01-20 21:23:00,
2013-01-20 15:28:00,32.0,19.8,30.19,NNE,30,3.0,-999.0,39,0.00,,,0.00,Custom/Perl,2013-01-20 21:28:00,
2013-01-20 15:33:00,32.0,19.8,30.19,NW,312,3.0,-999.0,39,0.00,,,0.00,Custom/Perl,2013-01-20 21:33:00,
2013-01-20 15:39:00,31.9,19.7,30.20,North,359,1.0,-999.0,39,0.00,,,0.00,Custom/Perl,2013-01-20 21:39:00,
2013-01-20 15:44:00,32.0,19.8,30.20,NE,40,2.0,-999.0,39,0.00,,,0.00,Custom/Perl,2013-01-20 21:44:00,
2013-01-20 15:49:00,32.1,19.7,30.20,NNW,336,3.0,-999.0,38,0.00,,,0.00,Custom/Perl,2013-01-20 21:49:00,
2013-01-20 15:54:00,32.1,19.9,30.19,North,357,1.0,-999.0,39,0.00,,,0.00,Custom/Perl,2013-01-20 21:54:00,
2013-01-20 15:59:00,32.2,20.0,30.19,NNW,345,4.0,-999.0,39,0.00,,,0.00,Custom/Perl,2013-01-20 21:59:00,
2013-01-20 16:04:00,32.1,20.1,30.20,NNE,26,1.0,-999.0,40,0.00,,,0.00,Custom/Perl,2013-01-20 22:04:00,
2013-01-20 16:10:00,32.2,20.2,30.20,NNW,336,4.0,-999.0,40,0.00,,,0.00,Custom/Perl,2013-01-20 22:10:00,
2013-01-20 16:15:00,32.0,20.0,30.19,NE,37,2.0,-999.0,40,0.00,,,0.00,Custom/Perl,2013-01-20 22:15:00,
2013-01-20 16:20:00,31.8,19.8,30.19,NNW,345,4.0,-999.0,40,0.00,,,0.00,Custom/Perl,2013-01-20 22:20:00,
2013-01-20 16:26:00,31.7,19.7,30.20,NW,325,4.0,-999.0,40,0.00,,,0.00,Custom/Perl,2013-01-20 22:26:00,
2013-01-20 16:31:00,31.4,19.2,30.20,North,7,4.0,-999.0,39,0.00,,,0.00,Custom/Perl,2013-01-20 22:31:00,
2013-01-20 16:36:00,31.0,18.8,30.20,NNW,333,6.0,-999.0,39,0.00,,,0.00,Custom/Perl,2013-01-20 22:36:00,
2013-01-20 16:41:00,30.6,18.4,30.20,NE,49,2.0,-999.0,39,0.00,,,0.00,Custom/Perl,2013-01-20 22:41:00,
2013-01-20 16:47:00,30.4,18.4,30.20,North,357,4.0,-999.0,40,0.00,,,0.00,Custom/Perl,2013-01-20 22:47:00,
2013-01-20 16:52:00,30.1,18.1,30.20,WNW,293,2.0,-999.0,40,0.00,,,0.00,Custom/Perl,2013-01-20 22:52:00,
2013-01-20 16:57:00,29.9,18.1,30.21,NW,321,3.0,-999.0,41,0.00,,,0.00,Custom/Perl,2013-01-20 22:57:00,
2013-01-20 17:03:00,29.7,18.1,30.21,WSW,247,2.0,-999.0,42,0.00,,,0.00,Custom/Perl,2013-01-20 23:03:00,
2013-01-20 17:08:00,29.6,18.0,30.21,NE,35,3.0,-999.0,42,0.00,,,0.00,Custom/Perl,2013-01-20 23:08:00,
2013-01-20 17:13:00,29.4,18.0,30.21,NW,319,0.0,-999.0,43,0.00,,,0.00,Custom/Perl,2013-01-20 23:13:00,
2013-01-20 17:18:00,29.3,17.7,30.21,NNW,327,2.0,-999.0,42,0.00,,,0.00,Custom/Perl,2013-01-20 23:18:00,
2013-01-20 17:24:00,29.2,17.6,30.22,NNE,18,2.0,-999.0,42,0.00,,,0.00,Custom/Perl,2013-01-20 23:24:00,
2013-01-20 17:29:00,29.0,17.4,30.22,WNW,295,3.0,-999.0,42,0.00,,,0.00,Custom/Perl,2013-01-20 23:29:00,
2013-01-20 17:34:00,28.8,17.0,30.22,NNW,331,2.0,-999.0,41,0.00,,,0.00,Custom/Perl,2013-01-20 23:34:00,
2013-01-20 17:39:00,28.6,16.8,30.23,NW,314,1.0,-999.0,41,0.00,,,0.00,Custom/Perl,2013-01-20 23:39:00,
2013-01-20 17:44:00,28.5,16.9,30.23,NW,311,2.0,-999.0,42,0.00,,,0.00,Custom/Perl,2013-01-20 23:44:00,
2013-01-20 17:50:00,28.3,16.9,30.23,NNE,14,3.0,-999.0,43,0.00,,,0.00,Custom/Perl,2013-01-20 23:50:00,
2013-01-20 17:55:00,28.2,17.0,30.23,NNE,25,4.0,-999.0,44,0.00,,,0.00,Custom/Perl,2013-01-20 23:55:00,
2013-01-20 18:00:00,28.0,16.8,30.23,North,351,1.0,-999.0,44,0.00,,,0.00,Custom/Perl,2013-01-21 00:00:00,
2013-01-20 18:06:00,27.8,16.4,30.24,NE,53,4.0,-999.0,43,0.00,,,0.00,Custom/Perl,2013-01-21 00:06:00,
2013-01-20 18:11:00,27.5,16.1,30.24,ENE,61,1.0,-999.0,43,0.00,,,0.00,Custom/Perl,2013-01-21 00:11:00,
2013-01-20 18:16:00,27.3,15.9,30.24,North,11,2.0,-999.0,43,0.00,,,0.00,Custom/Perl,2013-01-21 00:16:00,
2013-01-20 18:21:00,27.2,15.8,30.24,NNE,32,2.0,-999.0,43,0.00,,,0.00,Custom/Perl,2013-01-21 00:21:00,
2013-01-20 18:27:00,27.0,15.6,30.24,NNE,21,3.0,-999.0,43,0.00,,,0.00,Custom/Perl,2013-01-21 00:27:00,
2013-01-20 18:32:00,26.8,15.6,30.24,North,355,0.0,-999.0,44,0.00,,,0.00,Custom/Perl,2013-01-21 00:32:00,
2013-01-20 18:37:00,26.7,15.5,30.25,NNW,344,2.0,-999.0,44,0.00,,,0.00,Custom/Perl,2013-01-21 00:37:00,
2013-01-20 18:43:00,26.6,15.6,30.25,North,1,4.0,-999.0,45,0.00,,,0.00,Custom/Perl,2013-01-21 00:43:00,
2013-01-20 18:48:00,26.4,15.4,30.25,WNW,301,0.0,-999.0,45,0.00,,,0.00,Custom/Perl,2013-01-21 00:48:00,
2013-01-20 18:53:00,26.3,15.5,30.25,West,267,1.0,-999.0,46,0.00,,,0.00,Custom/Perl,2013-01-21 00:53:00,
2013-01-20 18:58:00,26.1,15.3,30.26,NW,320,1.0,-999.0,46,0.00,,,0.00,Custom/Perl,2013-01-21 00:58:00,
2013-01-20 19:03:00,25.9,15.3,30.26,WNW,301,0.0,-999.0,47,0.00,,,0.00,Custom/Perl,2013-01-21 01:03:00,
2013-01-20 19:09:00,25.8,15.2,30.26,NNW,342,2.0,-999.0,47,0.00,,,0.00,Custom/Perl,2013-01-21 01:09:00,
2013-01-20 19:14:00,25.7,15.3,30.26,North,352,2.0,-999.0,48,0.00,,,0.00,Custom/Perl,2013-01-21 01:14:00,
2013-01-20 19:19:00,25.5,15.1,30.26,NW,304,1.0,-999.0,48,0.00,,,0.00,Custom/Perl,2013-01-21 01:19:00,
2013-01-20 19:24:00,25.5,15.1,30.27,NW,322,1.0,-999.0,48,0.00,,,0.00,Custom/Perl,2013-01-21 01:24:00,
2013-01-20 19:29:00,25.4,15.0,30.27,NW,321,1.0,-999.0,48,0.00,,,0.00,Custom/Perl,2013-01-21 01:29:00,
2013-01-20 19:35:00,25.4,15.0,30.27,NNW,332,5.0,-999.0,48,0.00,,,0.00,Custom/Perl,2013-01-21 01:35:00,
2013-01-20 19:40:00,25.3,15.3,30.27,ENE,63,4.0,-999.0,50,0.00,,,0.00,Custom/Perl,2013-01-21 01:40:00,
2013-01-20 19:45:00,25.2,15.4,30.27,NW,314,3.0,-999.0,51,0.00,,,0.00,Custom/Perl,2013-01-21 01:45:00,
2013-01-20 19:50:00,25.0,15.4,30.27,NNW,340,5.0,-999.0,52,0.00,,,0.00,Custom/Perl,2013-01-21 01:50:00,
2013-01-20 19:56:00,24.8,15.2,30.27,North,349,3.0,-999.0,52,0.00,,,0.00,Custom/Perl,2013-01-21 01:56:00,
2013-01-20 20:01:00,24.6,15.2,30.27,NE,48,4.0,-999.0,53,0.00,,,0.00,Custom/Perl,2013-01-21 02:01:00,
2013-01-20 20:06:00,24.4,15.0,30.27,North,352,1.0,-999.0,53,0.00,,,0.00,Custom/Perl,2013-01-21 02:06:00,
2013-01-20 20:12:00,24.2,14.8,30.27,NNE,23,1.0,-999.0,53,0.00,,,0.00,Custom/Perl,2013-01-21 02:12:00,
2013-01-20 20:17:00,24.0,14.6,30.28,NNW,341,2.0,-999.0,53,0.00,,,0.00,Custom/Perl,2013-01-21 02:17:00,
2013-01-20 20:23:00,23.9,14.7,30.28,NNW,333,2.0,-999.0,54,0.00,,,0.00,Custom/Perl,2013-01-21 02:23:00,
2013-01-20 20:28:00,23.7,14.5,30.28,NW,324,2.0,-999.0,54,0.00,,,0.00,Custom/Perl,2013-01-21 02:28:00,
2013-01-20 20:33:00,23.5,14.1,30.28,NNW,342,4.0,-999.0,53,0.00,,,0.00,Custom/Perl,2013-01-21 02:33:00,
2013-01-20 20:39:00,23.4,14.0,30.28,NNW,332,3.0,-999.0,53,0.00,,,0.00,Custom/Perl,2013-01-21 02:39:00,
2013-01-20 20:44:00,23.3,13.9,30.28,WNW,302,4.0,-999.0,53,0.00,,,0.00,Custom/Perl,2013-01-21 02:44:00,
2013-01-20 20:49:00,23.2,13.8,30.28,NW,306,3.0,-999.0,53,0.00,,,0.00,Custom/Perl,2013-01-21 02:49:00,
2013-01-20 20:54:00,23.1,13.7,30.29,NE,41,2.0,-999.0,53,0.00,,,0.00,Custom/Perl,2013-01-21 02:54:00,
2013-01-20 20:59:00,22.9,13.5,30.29,NW,316,2.0,-999.0,53,0.00,,,0.00,Custom/Perl,2013-01-21 02:59:00,
2013-01-20 21:05:00,22.7,13.5,30.29,NW,323,6.0,-999.0,54,0.00,,,0.00,Custom/Perl,2013-01-21 03:05:00,
2013-01-20 21:10:00,22.6,13.2,30.29,North,6,4.0,-999.0,53,0.00,,,0.00,Custom/Perl,2013-01-21 03:10:00,
2013-01-20 21:15:00,22.5,13.3,30.29,NNE,30,1.0,-999.0,54,0.00,,,0.00,Custom/Perl,2013-01-21 03:15:00,
2013-01-20 21:21:00,22.4,13.0,30.29,NNE,30,2.0,-999.0,53,0.00,,,0.00,Custom/Perl,2013-01-21 03:21:00,
2013-01-20 21:26:00,22.3,13.1,30.29,NW,305,2.0,-999.0,54,0.00,,,0.00,Custom/Perl,2013-01-21 03:26:00,
2013-01-20 21:31:00,22.1,12.9,30.28,North,5,0.0,-999.0,54,0.00,,,0.00,Custom/Perl,2013-01-21 03:31:00,
2013-01-20 21:37:00,21.9,12.9,30.28,NW,316,0.0,-999.0,55,0.00,,,0.00,Custom/Perl,2013-01-21 03:37:00,
2013-01-20 21:42:00,21.7,12.7,30.28,NNW,333,0.0,-999.0,55,0.00,,,0.00,Custom/Perl,2013-01-21 03:42:00,
2013-01-20 21:47:00,21.5,12.7,30.29,NW,317,2.0,-999.0,56,0.00,,,0.00,Custom/Perl,2013-01-21 03:47:00,
2013-01-20 21:53:00,21.5,12.9,30.29,NW,325,0.0,-999.0,57,0.00,,,0.00,Custom/Perl,2013-01-21 03:53:00,
2013-01-20 21:58:00,21.4,12.8,30.30,North,1,0.0,-999.0,57,0.00,,,0.00,Custom/Perl,2013-01-21 03:58:00,
2013-01-20 22:03:00,21.1,12.7,30.30,NW,307,1.0,-999.0,58,0.00,,,0.00,Custom/Perl,2013-01-21 04:03:00,
2013-01-20 22:08:00,20.9,12.7,30.30,NW,315,1.0,-999.0,59,0.00,,,0.00,Custom/Perl,2013-01-21 04:08:00,
2013-01-20 22:14:00,20.9,12.9,30.31,NW,315,2.0,-999.0,60,0.00,,,0.00,Custom/Perl,2013-01-21 04:14:00,
2013-01-20 22:19:00,20.9,12.7,30.31,NNW,340,4.0,-999.0,59,0.00,,,0.00,Custom/Perl,2013-01-21 04:19:00,
2013-01-20 22:24:00,20.9,12.7,30.31,NNW,327,3.0,-999.0,59,0.00,,,0.00,Custom/Perl,2013-01-21 04:24:00,
2013-01-20 22:29:00,20.8,12.8,30.31,WNW,295,2.0,-999.0,60,0.00,,,0.00,Custom/Perl,2013-01-21 04:29:00,
2013-01-20 22:34:00,20.7,12.7,30.31,North,359,4.0,-999.0,60,0.00,,,0.00,Custom/Perl,2013-01-21 04:34:00,
2013-01-20 22:39:00,20.6,12.6,30.32,NW,308,1.0,-999.0,60,0.00,,,0.00,Custom/Perl,2013-01-21 04:39:00,
2013-01-20 22:45:00,20.4,12.4,30.32,ENE,60,1.0,-999.0,60,0.00,,,0.00,Custom/Perl,2013-01-21 04:45:00,
2013-01-20 22:50:00,20.2,12.2,30.32,NW,311,2.0,-999.0,60,0.00,,,0.00,Custom/Perl,2013-01-21 04:50:00,
2013-01-20 22:55:00,20.1,12.3,30.32,NNE,17,1.0,-999.0,61,0.00,,,0.00,Custom/Perl,2013-01-21 04:55:00,
2013-01-20 23:02:00,19.9,12.1,30.32,NNW,339,1.0,-999.0,61,0.00,,,0.00,Custom/Perl,2013-01-21 05:02:00,
2013-01-20 23:03:00,19.9,12.1,30.32,North,349,2.0,-999.0,61,0.00,,,0.00,Custom/Perl,2013-01-21 05:03:00,
2013-01-20 23:04:00,19.8,12.0,30.33,ENE,61,0.0,-999.0,61,0.00,,,0.00,Custom/Perl,2013-01-21 05:04:00,
2013-01-20 23:06:00,19.8,12.0,30.33,NW,316,1.0,-999.0,61,0.00,,,0.00,Custom/Perl,2013-01-21 05:06:00,
2013-01-20 23:11:00,19.5,11.9,30.32,NW,319,0.0,-999.0,62,0.00,,,0.00,Custom/Perl,2013-01-21 05:11:00,
2013-01-20 23:17:00,19.2,11.8,30.32,NNW,328,0.0,-999.0,63,0.00,,,0.00,Custom/Perl,2013-01-21 05:17:00,
2013-01-20 23:22:00,19.0,11.6,30.32,NNW,347,0.0,-999.0,63,0.00,,,0.00,Custom/Perl,2013-01-21 05:22:00,
2013-01-20 23:28:00,18.8,11.4,30.32,NNE,25,0.0,-999.0,63,0.00,,,0.00,Custom/Perl,2013-01-21 05:28:00,
2013-01-20 23:33:00,18.6,11.4,30.32,North,352,1.0,-999.0,64,0.00,,,0.00,Custom/Perl,2013-01-21 05:33:00,
2013-01-20 23:38:00,18.5,11.3,30.32,NNW,336,0.0,-999.0,64,0.00,,,0.00,Custom/Perl,2013-01-21 05:38:00,
2013-01-20 23:43:00,18.2,11.2,30.32,NNE,25,0.0,-999.0,65,0.00,,,0.00,Custom/Perl,2013-01-21 05:43:00,
2013-01-20 23:49:00,18.0,11.0,30.32,NNE,25,0.0,-999.0,65,0.00,,,0.00,Custom/Perl,2013-01-21 05:49:00,
2013-01-20 23:54:00,17.7,10.9,30.32,NNE,25,0.0,-999.0,66,0.00,,,0.00,Custom/Perl,2013-01-21 05:54:00,